| time (UTC) | temp F | wind direction | speed knots | gust knots | rain 1hr in | rain 24hr in | rain mn in | humidity % | barometer mb |
| 20260901204610 | 81 | 0 | 0.0 | 0.0 | 0.03 | 0.07 | 0.05 | 88 | 1013.8 |
| 20260901203110 | 81 | 0 | 0.0 | 0.0 | 0.05 | 0.07 | 0.05 | 87 | 1013.6 |
| 20260901201603 | 81 | 0 | 0.0 | 1.7 | 0.05 | 0.07 | 0.05 | 87 | 1013.6 |
| 20260901200059 | 82 | 0 | 0.0 | 1.7 | 0.05 | 0.07 | 0.05 | 86 | 1013.9 |
| 20260901194602 | 84 | 0 | 0.0 | 1.7 | 0.02 | 0.04 | 0.02 | 81 | 1014.5 |
| 20260901193115 | 86 | 0 | 0.0 | 1.7 | 0.00 | 0.02 | 0.00 | 78 | 1014.8 |
| 20260901191600 | 86 | 0 | 0.0 | 3.5 | 0.00 | 0.02 | 0.00 | 78 | 1014.6 |
| 20260901190105 | 86 | 240 | 0.9 | 7.8 | 0.00 | 0.02 | 0.00 | 78 | 1014.6 |
| 20260901184604 | 86 | 0 | 0.0 | 6.1 | 0.00 | 0.02 | 0.00 | 80 | 1014.5 |
| 20260901183103 | 86 | 0 | 0.0 | 4.3 | 0.00 | 0.02 | 0.00 | 80 | 1014.8 |
| 20260901181559 | 86 | 263 | 0.0 | 3.5 | 0.00 | 0.02 | 0.00 | 80 | 1014.9 |
| 20260901180105 | 85 | 0 | 0.0 | 5.2 | 0.00 | 0.02 | 0.00 | 82 | 1015.1 |
| 20260901174601 | 85 | 259 | 0.0 | 5.2 | 0.00 | 0.02 | 0.00 | 82 | 1015.3 |
| 20260901173104 | 85 | 0 | 0.0 | 3.5 | 0.00 | 0.02 | 0.00 | 82 | 1015.5 |
| 20260901171604 | 84 | 270 | 0.0 | 1.7 | 0.00 | 0.02 | 0.00 | 82 | 1016.0 |
| 20260901170108 | 83 | 0 | 0.0 | 1.7 | 0.00 | 0.02 | 0.00 | 83 | 1016.1 |
| 20260901164625 | 83 | 352 | 0.0 | 2.6 | 0.00 | 0.02 | 0.00 | 83 | 1016.3 |
| 20260901163101 | 82 | 63 | 0.0 | 1.7 | 0.00 | 0.02 | 0.00 | 84 | 1016.5 |
| 20260901161601 | 82 | 0 | 0.0 | 0.0 | 0.00 | 0.02 | 0.00 | 85 | 1016.3 |
| 20260901160106 | 82 | 0 | 0.0 | 0.0 | 0.00 | 0.02 | 0.00 | 85 | 1016.4 |
| 20260901154600 | 81 | 0 | 0.0 | 5.2 | 0.00 | 0.02 | 0.00 | 85 | 1016.4 |
| 20260901153103 | 81 | 0 | 0.0 | 3.5 | 0.00 | 0.02 | 0.00 | 85 | 1016.4 |
| 20260901151611 | 82 | 0 | 0.9 | 5.2 | 0.00 | 0.02 | 0.00 | 84 | 1016.3 |
| 20260901150108 | 82 | 72 | 0.9 | 3.5 | 0.00 | 0.02 | 0.00 | 84 | 1016.3 |
| 20260901144603 | 82 | 61 | 0.0 | 1.7 | 0.00 | 0.02 | 0.00 | 84 | 1016.4 |
| 20260901143104 | 82 | 0 | 0.0 | 0.9 | 0.00 | 0.02 | 0.00 | 84 | 1016.4 |
| 20260901141602 | 82 | 0 | 0.0 | 1.7 | 0.00 | 0.02 | 0.00 | 84 | 1016.3 |
| 20260901140107 | 82 | 0 | 0.0 | 1.7 | 0.00 | 0.02 | 0.00 | 84 | 1016.1 |
| 20260901134620 | 82 | 0 | 0.0 | 0.9 | 0.00 | 0.02 | 0.00 | 85 | 1016.1 |
| 20260901133101 | 81 | 0 | 0.0 | 0.0 | 0.00 | 0.02 | 0.00 | 85 | 1016.1 |
| 20260901131600 | 81 | 67 | 0.0 | 5.2 | 0.00 | 0.02 | 0.00 | 86 | 1015.7 |
| 20260901131558 | 80 | 0 | 0.0 | 5.2 | 0.00 | 0.02 | 0.00 | 85 | 1016.0 |
| 20260901131501 | 80 | 67 | 0.0 | 5.2 | 0.00 | 0.02 | 0.00 | 86 | 1015.5 |
| 20260901131048 | 80 | 67 | 0.0 | 5.2 | 0.00 | 0.02 | 0.00 | 86 | 1015.7 |
| 20260901130529 | 80 | 74 | 0.9 | 5.2 | 0.00 | 0.02 | 0.00 | 86 | 1015.8 |
| 20260901130105 | 80 | 0 | 0.0 | 1.7 | 0.00 | 0.02 | 0.00 | 86 | 1016.1 |
| 20260901130038 | 80 | 247 | 0.0 | 1.7 | 0.00 | 0.02 | 0.00 | 86 | 1015.8 |
| 20260901130008 | 79 | 247 | 0.0 | 1.7 | 0.00 | 0.02 | 0.00 | 86 | 1015.6 |
| 20260901124605 | 79 | 0 | 0.0 | 0.0 | 0.00 | 0.02 | 0.00 | 86 | 1015.9 |
| 20260901123108 | 79 | 0 | 0.0 | 0.0 | 0.00 | 0.02 | 0.00 | 87 | 1015.5 |
| 20260901121602 | 79 | 0 | 0.0 | 1.7 | 0.00 | 0.02 | 0.00 | 87 | 1015.3 |
| 20260901120106 | 79 | 0 | 0.0 | 0.0 | 0.00 | 0.02 | 0.00 | 87 | 1015.4 |
| 20260901114557 | 79 | 0 | 0.0 | 0.0 | 0.00 | 0.02 | 0.00 | 87 | 1015.2 |
| 20260901113104 | 79 | 0 | 0.0 | 0.0 | 0.00 | 0.02 | 0.00 | 87 | 1015.2 |
| 20260901111603 | 78 | 0 | 0.0 | 0.9 | 0.00 | 0.02 | 0.00 | 87 | 1015.2 |
| 20260901104606 | 78 | 0 | 0.0 | 1.7 | 0.00 | 0.02 | 0.00 | 88 | 1015.1 |
| 20260901103100 | 78 | 0 | 0.0 | 0.0 | 0.00 | 0.02 | 0.00 | 89 | 1015.1 |
| 20260901101609 | 78 | 0 | 0.0 | 0.0 | 0.00 | 0.02 | 0.00 | 89 | 1015.0 |
| 20260901100100 | 77 | 0 | 0.0 | 0.0 | 0.00 | 0.02 | 0.00 | 89 | 1015.0 |
| 20260901094608 | 78 | 0 | 0.0 | 0.0 | 0.00 | 0.02 | 0.00 | 88 | 1015.2 |
| 20260901093105 | 78 | 0 | 0.0 | 0.0 | 0.00 | 0.02 | 0.00 | 88 | 1015.4 |
| 20260901091604 | 78 | 0 | 0.0 | 0.0 | 0.00 | 0.02 | 0.00 | 88 | 1015.4 |
| 20260901090108 | 78 | 0 | 0.0 | 0.0 | 0.00 | 0.02 | 0.00 | 88 | 1015.4 |
| 20260901084602 | 78 | 0 | 0.0 | 0.0 | 0.00 | 0.02 | 0.00 | 88 | 1015.3 |
| 20260901083109 | 78 | 0 | 0.0 | 0.0 | 0.00 | 0.02 | 0.00 | 88 | 1015.3 |
| 20260901081606 | 79 | 0 | 0.0 | 0.0 | 0.00 | 0.02 | 0.00 | 88 | 1015.3 |
| 20260901080122 | 79 | 0 | 0.0 | 0.0 | 0.00 | 0.02 | 0.00 | 87 | 1015.3 |
| 20260901074602 | 79 | 0 | 0.0 | 0.0 | 0.00 | 0.02 | 0.00 | 87 | 1015.4 |
| 20260901073104 | 79 | 0 | 0.0 | 0.0 | 0.00 | 0.02 | 0.00 | 87 | 1015.3 |
| 20260901071603 | 80 | 0 | 0.0 | 0.0 | 0.00 | 0.02 | 0.00 | 87 | 1015.7 |
| 20260901070110 | 80 | 0 | 0.0 | 0.0 | 0.00 | 0.02 | 0.00 | 86 | 1015.6 |
| 20260901064602 | 80 | 0 | 0.0 | 0.0 | 0.00 | 0.02 | 0.00 | 86 | 1015.6 |
| 20260901063105 | 81 | 0 | 0.0 | 0.0 | 0.00 | 0.02 | 0.00 | 86 | 1015.7 |
| 20260901061604 | 81 | 0 | 0.0 | 0.0 | 0.00 | 0.02 | 0.00 | 86 | 1015.8 |
| 20260901060115 | 81 | 0 | 0.0 | 0.0 | 0.00 | 0.02 | 0.00 | 86 | 1015.8 |
| 20260901054606 | 82 | 0 | 0.0 | 0.0 | 0.00 | 0.02 | 0.00 | 85 | 1015.8 |
| 20260901053121 | 82 | 0 | 0.0 | 1.7 | 0.00 | 0.02 | 0.00 | 85 | 1015.9 |
| 20260901051610 | 82 | 0 | 0.0 | 0.0 | 0.00 | 0.02 | 0.00 | 85 | 1015.8 |
| 20260901050104 | 83 | 0 | 0.0 | 0.9 | 0.00 | 0.02 | 0.00 | 85 | 1015.7 |
| 20260901044624 | 83 | 0 | 0.0 | 0.0 | 0.00 | 0.02 | 0.02 | 85 | 1015.7 |
| 20260901043105 | 83 | 0 | 0.0 | 1.7 | 0.00 | 0.02 | 0.02 | 85 | 1015.7 |
| 20260901041605 | 83 | 272 | 0.0 | 0.0 | 0.00 | 0.02 | 0.02 | 85 | 1015.9 |
| 20260901040115 | 84 | 0 | 0.0 | 0.0 | 0.00 | 0.02 | 0.02 | 85 | 1015.8 |
| 20260901034612 | 84 | 0 | 0.0 | 0.0 | 0.00 | 0.02 | 0.02 | 85 | 1015.5 |
| 20260901033103 | 84 | 0 | 0.0 | 0.0 | 0.00 | 0.02 | 0.02 | 84 | 1015.6 |
| 20260901031607 | 84 | 0 | 0.0 | 0.0 | 0.00 | 0.02 | 0.02 | 84 | 1015.6 |
| 20260901030103 | 84 | 0 | 0.0 | 0.0 | 0.00 | 0.02 | 0.02 | 83 | 1015.4 |
| 20260901024607 | 84 | 0 | 0.0 | 0.0 | 0.00 | 0.02 | 0.02 | 83 | 1015.1 |
| 20260901023109 | 85 | 0 | 0.0 | 0.0 | 0.00 | 0.02 | 0.02 | 82 | 1014.9 |
| 20260901021608 | 85 | 0 | 0.0 | 0.0 | 0.00 | 0.02 | 0.02 | 82 | 1014.8 |
| 20260901020106 | 85 | 277 | 0.0 | 0.0 | 0.00 | 0.02 | 0.02 | 82 | 1014.8 |
| 20260901014606 | 85 | 0 | 0.0 | 0.0 | 0.00 | 0.02 | 0.02 | 81 | 1014.5 |
| 20260901013109 | 86 | 0 | 0.0 | 0.0 | 0.00 | 0.02 | 0.02 | 80 | 1014.2 |
| 20260901011607 | 86 | 0 | 0.0 | 0.0 | 0.00 | 0.02 | 0.02 | 79 | 1014.3 |
| 20260901010109 | 87 | 0 | 0.0 | 0.0 | 0.00 | 0.02 | 0.02 | 78 | 1014.4 |
| 20260901004614 | 88 | 0 | 0.0 | 0.9 | 0.00 | 0.02 | 0.02 | 77 | 1014.4 |
| 20260901003107 | 88 | 252 | 0.0 | 1.7 | 0.00 | 0.02 | 0.02 | 76 | 1014.2 |
| 20260901001604 | 89 | 0 | 0.0 | 5.2 | 0.00 | 0.02 | 0.02 | 75 | 1014.3 |
| 20260831234606 | 91 | 237 | 0.0 | 3.5 | 0.00 | 0.02 | 0.02 | 72 | 1014.2 |
| 20260831233103 | 90 | 0 | 0.0 | 4.3 | 0.00 | 0.02 | 0.02 | 73 | 1014.2 |
| 20260831231601 | 90 | 0 | 0.0 | 3.5 | 0.00 | 0.02 | 0.02 | 74 | 1014.3 |
| 20260831230115 | 90 | 0 | 0.0 | 6.1 | 0.01 | 0.02 | 0.02 | 74 | 1014.4 |
| 20260831224603 | 91 | 249 | 0.9 | 2.6 | 0.01 | 0.02 | 0.02 | 73 | 1014.4 |
| 20260831223102 | 91 | 0 | 0.0 | 6.1 | 0.01 | 0.02 | 0.02 | 74 | 1014.5 |
| 20260831221607 | 91 | 0 | 0.0 | 3.5 | 0.01 | 0.02 | 0.02 | 74 | 1014.6 |
| 20260831220133 | 90 | 254 | 0.0 | 5.2 | 0.00 | 0.01 | 0.01 | 74 | 1014.5 |
| 20260831214603 | 89 | 254 | 0.0 | 5.2 | 0.01 | 0.01 | 0.01 | 78 | 1014.7 |
| 20260831213120 | 88 | 260 | 0.0 | 2.6 | 0.01 | 0.01 | 0.01 | 82 | 1014.9 |
| 20260831211616 | 87 | 0 | 0.0 | 2.6 | 0.01 | 0.01 | 0.01 | 82 | 1015.2 |
| 20260831210106 | 88 | 0 | 0.0 | 2.6 | 0.01 | 0.01 | 0.01 | 81 | 1015.5 |